[Date Prev][Date Next][Thread Prev][Thread Next] - [Date Index][Thread Index][Author Index]

MIR Keps 25-4-00




 These keps will update 20-4-00 keps by 2 min's  - MIR had orbit adj when
they let the empty supply ship go - 


MIR
1 16609U 86017A   00116.85394567  .00077751  00000-0  40947-3 0  5719
2 16609  51.6482 165.4732 0003454 155.8972 204.2192 15.79982589810924


Dave
N6CO
>

----
Via the sarex mailing list at AMSAT.ORG courtesy of AMSAT-NA.
To unsubscribe, send "unsubscribe sarex" to Majordomo@amsat.org



AMSAT Top AMSAT Home